Weather 🌤️

Recent data

Temperatures

Wind

Pressure

Humidity & Precipitation

Last data
obsTime qcStatus tempAvg heatindexAvg windspeedAvg windgustAvg winddirAvg pressureAvg humidityAvg precipRate precipTotal
2026-09-03 11:59:52 1 24.3 24.1 3.7 7.1 251 1003.9 50 0 0
2026-09-03 11:54:47 1 24.2 24 1.3 6.9 165 1003.9 50 0 0
2026-09-03 11:49:53 1 24 23.8 2.5 6.9 175 1004.06 50.2 0 0
2026-09-03 11:44:52 1 23.9 23.6 2.2 6.9 178 1004.06 51 0 0
2026-09-03 11:39:52 1 23.7 23.5 2.3 6.9 168 1004.23 51 0 0
2026-09-03 11:34:55 1 23.7 23.4 3.4 6.9 263 1004.23 51.2 0 0
2026-09-03 11:29:53 1 23.5 23.2 3.7 6.9 172 1004.23 51.4 0 0
2026-09-03 11:24:52 1 23.3 23 1.1 5.2 153 1004.23 52 0 0
2026-09-03 11:19:52 1 23.2 23 1.3 5 184 1004.06 52 0 0
2026-09-03 11:14:52 1 22.9 22.7 1.8 5 169 1004.06 52.5 0 0
2026-09-03 11:09:52 1 22.8 22.5 2.7 5 181 1004.06 53.1 0 0
2026-09-03 11:04:51 1 22.5 22.2 2.4 5 168 1004.23 54 0 0

Hourly data

Temperatures

Wind

Pressure

Humidity & Precipitation

Last data
obsTime qcStatus tempAvg heatindexAvg windspeedAvg windgustAvg winddirAvg pressureAvg humidityAvg precipRate precipTotal
2026-09-03 11:59:52 1 23.5 23.3 2.4 6.2 184 1004.07 51.5 0 0
2026-09-03 10:59:55 1 20.8 20.7 1.6 4.5 181 1004.23 55.9 0 0
2026-09-03 09:59:54 1 19.3 19.3 1 3.6 183 1004.23 57.9 0 0
2026-09-03 08:59:52 0 18.6 18.6 0.5 2.6 187 1004.07 58.3 0 0
2026-09-03 07:59:52 0 18.3 18.3 0.1 2 183 1003.56 58 0 0
2026-09-03 06:59:53 0 18.7 18.7 0.2 2.3 151 1003.05 56.3 0 0
2026-09-03 05:59:52 0 19.6 19.6 0.5 3 167 1002.88 54.1 0 0
2026-09-03 04:59:52 0 20.7 20.7 0.6 3.8 229 1002.71 52.3 0 0
2026-09-03 03:59:52 0 21.4 20.9 0.1 3 204 1002.71 50.3 0 0
2026-09-03 02:59:52 0 22.1 21.6 0.4 4 220 1002.71 48.4 0 0
2026-09-03 01:59:52 0 22.6 22.1 0.5 6.5 218 1002.54 46.7 0 0
2026-09-03 00:59:54 0 23.1 22.6 4.4 7.8 224 1002.54 44.7 0 0
2026-09-02 23:59:52 0 23.9 23.4 4.9 8 229 1002.03 42.9 0 0
2026-09-02 22:59:51 0 24.7 24.3 0.7 5.8 214 1001.69 40.9 0 0
2026-09-02 21:59:55 0 25.7 25.4 1 7.8 225 1001.19 39.3 0 0
2026-09-02 20:59:53 0 26.8 26.5 3.1 8.5 228 1000.34 38.5 0 0
2026-09-02 19:59:52 1 27.9 27.5 1.9 8.3 211 1000 38.5 0 0
2026-09-02 18:59:52 1 28.3 27.8 4 17.3 217 999.66 38.2 0 0
2026-09-02 17:59:52 1 27.9 27.7 3.5 9.5 216 1000 41.2 0 0
2026-09-02 16:59:52 1 27.6 27.5 3.6 10.1 263 1000 42.7 0 0
2026-09-02 15:59:52 1 27 27.1 4 8.9 232 1000.34 44.7 0 0
2026-09-02 14:59:52 1 26.4 26.3 3.6 10.5 245 1000.68 46.6 0 0
2026-09-02 13:59:52 1 25.5 25.4 3.4 9.9 210 1001.02 49.1 0 0
2026-09-02 12:59:52 1 24.6 24.4 2.9 7.3 213 1001.36 51.6 0 0